Terminal Aerodrome Forecast
Issued by NWS Houston/Galveston, TX

Home | Current Version | Previous Version | Text Only | Print | Product List | Glossary On
Versions: 1 2 3 4 5 6 7 8 9 10 11 12 13 14 15 16 17 18 19 20 21 22 23 24 25 26 27 28 29 30 31 32 33 34 35 36 37 38 39 40 41 42 43 44 45 46 47 48 49 50
582
FTUS44 KHGX 261140
TAFCLL
TAF
KCLL 261140Z 2612/2712 15007KT P6SM VCSH OVC015
      TEMPO 2615/2618 -SHRA OVC020
     FM261800 16014KT P6SM VCTS BKN030CB
      TEMPO 2619/2623 VRB20KT 4SM -TSRA OVC025CB
     FM270300 15011KT P6SM BKN020
     FM270700 16013KT P6SM BKN007 OVC012 PROB30 2707/2712 SHRA=

USA.gov is the U.S. government's official web portal to all federal, state and local government web resources and services.